• Processing (Info)

  • MPEC 2009-K65 : COMET 126P/IRAS

    The following Minor Planet Electronic Circular may be linked-to from your own Web pages, but must not otherwise be redistributed electronically.

    A form allowing access to any MPEC is at the bottom of this page.


    Read MPEC 2009-K64 Read MPEC 2009-K66


    M.P.E.C. 2009-K65                                Issued 2009 May 28, 18:33 UT
    
         The Minor Planet Electronic Circulars contain information on unusual
             minor planets and routine data on comets.  They are published
       on behalf of Commission 20 of the International Astronomical Union by the
              Minor Planet Center, Smithsonian Astrophysical Observatory,
                              Cambridge, MA 02138, U.S.A.
    
                 Prepared using the Tamkin Foundation Computer Network
    
                                  MPC@CFA.HARVARD.EDU
              URL http://www.cfa.harvard.edu/iau/mpc.html  ISSN 1523-6714
    
                                    COMET 126P/IRAS
    
    Observations:
    0126P         C2009 05 27.59340 15 02 48.84 -82 45 06.0          18.6 N EK065D25
    0126P         C2009 05 27.60463 15 02 44.72 -82 45 06.5          19.2 N EK065D25
    0126P         C2009 05 27.61600 15 02 39.57 -82 45 07.5          19.4 N EK065D25
    0126P         C2009 05 28.51348 14 56 52.01 -82 46 17.6          19.5 N EK065D25
    0126P         C2009 05 28.54316 14 56 40.47 -82 46 19.2          19.4 N EK065D25
    0126P         C2009 05 28.56816 14 56 30.34 -82 46 21.0          19.1 N EK065D25
    
    Observer details:
    D25 Tzec Maun Observatory, Pingelly.  Observer L. Elenin.  0.15-m f/7.3
        refractor + CCD.
    
    Orbital elements:
     126P/IRAS
    Epoch 1983 Aug. 14.0 TT = JDT 2445560.5
    T 1983 Aug. 23.79901 TT                                 MPC
    q   1.6968035            (2000.0)            P               Q
    n   0.07492187     Peri.  356.89017     +0.99642617     +0.08004787
    a   5.5726742      Node   357.85824     -0.05310181     +0.34535245
    e   0.6955136      Incl.   46.18538     -0.06568928     +0.93505295
    P  13.16
    
    Epoch 1996 Nov. 13.0 TT = JDT 2450400.5
    T 1996 Oct. 29.99483 TT                                 MPC
    q   1.7026847            (2000.0)            P               Q
    n   0.07413995     Peri.  356.88703     +0.99620601     +0.08210844
    a   5.6117870      Node   357.70072     -0.05583243     +0.34879628
    e   0.6965878      Incl.   45.96160     -0.06675570     +0.93359486
    P  13.29
    
